Powrót do katalogu

FENGYUN 1C DEB

AktywnySSO
NORAD 36278·DEBRIS·🇨🇳 China

Wystrzelony May 10, 1999 z Taiyuan Satellite Launch Center

Loading…

Następne Przeloty (najbliższe 24 godziny)

TLE

Starzejące sięSource: Space-Track

Epoka: Sep 6, 2026, 12:31 UTC

1 36278U 99025DXF 26249.52184417  .00000278  00000-0  15677-3 0  9992
2 36278  99.1280 180.0746 0059720 251.6539 107.8133 14.17766459972705

Śledź FENGYUN 1C DEB w czasie rzeczywistym z AllMySat

Download on the App Store